Location: Natural Bridges National Monument
(37.6093°N, 109.9767°W)
Time: 05:45:48
(UTC-06:00)

Cosmos 1727 Rocket - Visible Passes

Search period start: 22 August 2014 00:00
Search period end: 01 September 2014 00:00
Orbit: 962 x 995 km, 82.9° (Epoch: 22 August)

Date Brightness Start Highest point End Pass type
(mag) Time Alt. Az. Time Alt. Az. Time Alt. Az.
22 Aug 5.5 21:51:59 10° SW 21:57:40 36° WNW 22:03:26 10° N visible
23 Aug 4.1 20:32:26 10° S 20:38:34 59° E 20:44:45 10° NNE visible
23 Aug 6.5 22:20:04 10° WSW 22:24:26 19° WNW 22:28:51 10° NNW visible
24 Aug 4.3 20:58:38 10° SSW 21:04:54 75° W 21:11:15 10° N visible
25 Aug 7.6 06:15:36 10° NE 06:17:13 11° ENE 06:18:49 10° E visible
25 Aug 5.4 21:25:36 10° SW 21:31:26 40° WNW 21:37:21 10° N visible
26 Aug 6.4 21:53:29 10° WSW 21:58:10 22° WNW 22:02:54 10° NNW visible
27 Aug 4.2 20:32:25 10° S 20:38:42 83° W 20:45:04 10° N visible
27 Aug 7.1 22:23:35 10° W 22:25:07 11° WNW 22:26:40 10° NW visible
28 Aug 5.3 20:59:14 10° SSW 21:05:12 44° WNW 21:11:15 10° N visible
29 Aug 7.1 06:13:28 10° NNE 06:17:54 20° ENE 06:22:16 10° ESE visible
29 Aug 6.4 21:26:56 10° SW 21:31:54 24° WNW 21:36:54 10° NNW visible
30 Aug 4.1 20:06:12 10° S 20:12:30 89° E 20:18:53 10° N visible
30 Aug 7.1 21:56:18 10° W 21:58:49 12° WNW 22:01:20 10° NW visible
31 Aug 5.1 20:32:54 10° SSW 20:38:58 49° W 20:45:07 10° N visible
